| time (UTC) | temp C | wind direction | speed KPH | gust KPH | rain 1hr cm | rain 24hr cm | rain mn cm | humidity % | barometer mb |
| 20260503053540 | 15 | 0.0 | 3.2 | 0.00 | 8.79 | 3.40 | 91 | 1011.7 | |
| 20260503052640 | 14 | 188 | 3.2 | 8.0 | 0.00 | 8.79 | 3.40 | 91 | 1011.8 |
| 20260503051540 | 14 | 307 | 3.2 | 6.4 | 0.00 | 8.79 | 3.40 | 91 | 1011.8 |
| 20260503050540 | 14 | 344 | 1.6 | 3.2 | 0.00 | 8.79 | 3.40 | 91 | 1011.8 |
| 20260503045540 | 14 | 0.0 | 4.8 | 0.00 | 8.79 | 3.40 | 91 | 1011.8 | |
| 20260503044540 | 14 | 313 | 1.6 | 3.2 | 0.00 | 8.79 | 3.40 | 91 | 1011.9 |
| 20260503043540 | 14 | 0.0 | 3.2 | 0.00 | 8.79 | 3.40 | 91 | 1012.0 | |
| 20260503042540 | 14 | 352 | 3.2 | 6.4 | 0.20 | 8.79 | 3.40 | 91 | 1011.9 |
| 20260503041545 | 14 | 0.0 | 3.2 | 0.61 | 8.79 | 3.40 | 91 | 1012.0 | |
| 20260503040540 | 14 | 190 | 3.2 | 4.8 | 0.79 | 8.79 | 3.40 | 91 | 1011.9 |
| 20260503035540 | 14 | 338 | 1.6 | 6.4 | 1.19 | 8.79 | 3.40 | 91 | 1011.9 |
| 20260503034530 | 14 | 305 | 1.6 | 3.2 | 1.19 | 8.79 | 3.40 | 91 | 1011.9 |
| 20260503033545 | 14 | 317 | 4.8 | 8.0 | 1.19 | 8.79 | 3.40 | 91 | 1012.1 |
| 20260503032545 | 14 | 1 | 4.8 | 8.0 | 0.99 | 8.61 | 3.20 | 91 | 1012.3 |
| 20260503031540 | 14 | 176 | 1.6 | 3.2 | 0.79 | 8.20 | 2.79 | 90 | 1012.5 |
| 20260503030540 | 14 | 296 | 1.6 | 8.0 | 0.61 | 8.00 | 2.59 | 90 | 1012.9 |
| 20260503025545 | 14 | 320 | 4.8 | 8.0 | 0.20 | 7.59 | 2.21 | 90 | 1013.0 |
| 20260503024540 | 14 | 303 | 6.4 | 9.7 | 0.20 | 7.59 | 2.21 | 90 | 1013.1 |
| 20260503023540 | 14 | 324 | 4.8 | 9.7 | 0.41 | 7.59 | 2.21 | 90 | 1012.9 |
| 20260503022545 | 14 | 308 | 1.6 | 4.8 | 0.41 | 7.59 | 2.21 | 89 | 1012.9 |
| 20260503021540 | 14 | 0.0 | 3.2 | 0.20 | 7.39 | 2.01 | 89 | 1012.9 | |
| 20260503020540 | 13 | 311 | 1.6 | 8.0 | 0.20 | 7.39 | 2.01 | 89 | 1012.9 |
| 20260503015540 | 13 | 312 | 0.0 | 6.4 | 0.20 | 7.39 | 2.01 | 89 | 1013.0 |
| 20260503014540 | 13 | 303 | 4.8 | 8.0 | 0.20 | 7.39 | 2.01 | 89 | 1012.9 |
| 20260503013600 | 14 | 214 | 3.2 | 6.4 | 0.00 | 7.19 | 1.80 | 89 | 1012.7 |
| 20260503012540 | 14 | 327 | 3.2 | 6.4 | 0.00 | 7.19 | 1.80 | 89 | 1012.8 |
| 20260503011545 | 13 | 217 | 3.2 | 8.0 | 0.00 | 7.19 | 1.80 | 89 | 1012.8 |
| 20260503010601 | 13 | 182 | 3.2 | 8.0 | 0.00 | 7.19 | 1.80 | 90 | 1012.9 |
| 20260503005540 | 13 | 289 | 1.6 | 6.4 | 0.00 | 7.19 | 1.80 | 90 | 1013.0 |
| 20260503004600 | 13 | 242 | 4.8 | 4.8 | 0.00 | 7.19 | 1.80 | 90 | 1013.0 |
| 20260503003605 | 13 | 43 | 4.8 | 6.4 | 0.00 | 7.19 | 1.80 | 89 | 1013.0 |
| 20260503002540 | 13 | 322 | 3.2 | 8.0 | 0.00 | 7.19 | 1.80 | 89 | 1013.2 |
| 20260503001605 | 13 | 322 | 3.2 | 8.0 | 0.00 | 7.19 | 1.80 | 89 | 1013.2 |
| 20260503000541 | 13 | 298 | 3.2 | 6.4 | 0.00 | 7.19 | 1.80 | 89 | 1013.3 |
| 20260502235725 | 13 | 329 | 1.6 | 4.8 | 0.00 | 7.19 | 1.80 | 89 | 1013.6 |
| 20260502234546 | 13 | 272 | 1.6 | 4.8 | 0.00 | 7.19 | 1.80 | 88 | 1013.7 |
| 20260502233545 | 13 | 304 | 1.6 | 4.8 | 0.00 | 7.19 | 1.80 | 88 | 1013.7 |
| 20260502232546 | 13 | 167 | 8.0 | 9.7 | 0.20 | 7.19 | 1.80 | 88 | 1013.7 |
| 20260502231549 | 13 | 130 | 8.0 | 8.0 | 0.61 | 7.19 | 1.80 | 88 | 1013.6 |
| 20260502230545 | 13 | 59 | 6.4 | 9.7 | 1.40 | 7.19 | 1.80 | 88 | 1013.5 |
| 20260502225541 | 13 | 146 | 3.2 | 8.0 | 2.21 | 7.19 | 1.80 | 88 | 1013.7 |
| 20260502224601 | 13 | 238 | 8.0 | 11.3 | 3.20 | 7.19 | 1.80 | 88 | 1013.7 |
| 20260502223540 | 13 | 155 | 6.4 | 14.5 | 4.60 | 7.19 | 1.80 | 87 | 1013.8 |
| 20260502222541 | 13 | 125 | 6.4 | 11.3 | 7.01 | 7.01 | 1.60 | 86 | 1014.1 |
| 20260502221541 | 13 | 160 | 9.7 | 14.5 | 6.60 | 6.60 | 1.19 | 86 | 1014.2 |
| 20260502220540 | 13 | 172 | 8.0 | 16.1 | 5.79 | 5.79 | 0.41 | 86 | 1014.1 |
| 20260502215541 | 13 | 166 | 8.0 | 9.7 | 5.00 | 5.00 | 5.00 | 84 | 1014.8 |
| 20260502214541 | 13 | 111 | 8.0 | 9.7 | 3.99 | 3.99 | 3.99 | 81 | 1015.5 |
| 20260502213606 | 13 | 302 | 8.0 | 17.7 | 2.59 | 2.59 | 2.59 | 78 | 1016.2 |
| 20260502212549 | 16 | 297 | 17.7 | 30.6 | 0.00 | 0.00 | 0.00 | 65 | 1015.8 |
| 20260502211540 | 16 | 282 | 3.2 | 4.8 | 0.00 | 0.00 | 0.00 | 63 | 1014.4 |
| 20260502210541 | 16 | 304 | 0.0 | 3.2 | 0.00 | 0.00 | 0.00 | 62 | 1014.4 |
| 20260502205601 | 16 | 214 | 3.2 | 4.8 | 0.00 | 0.00 | 0.00 | 61 | 1014.5 |
| 20260502204540 | 16 | 324 | 3.2 | 8.0 | 0.00 | 0.00 | 0.00 | 61 | 1014.7 |
| 20260502203511 | 16 | 305 | 3.2 | 8.0 | 0.00 | 0.00 | 0.00 | 62 | 1014.9 |
| 20260502202535 | 16 | 98 | 8.0 | 9.7 | 0.00 | 0.00 | 0.00 | 63 | 1015.0 |
| 20260502201540 | 16 | 311 | 1.6 | 3.2 | 0.00 | 0.00 | 0.00 | 66 | 1015.0 |
| 20260502200541 | 16 | 272 | 3.2 | 4.8 | 0.00 | 0.00 | 0.00 | 64 | 1015.1 |
| 20260502195544 | 16 | 0.0 | 0.0 | 0.00 | 0.00 | 0.00 | 63 | 1015.3 | |
| 20260502194541 | 16 | 0.0 | 1.6 | 0.00 | 0.00 | 0.00 | 61 | 1015.3 | |
| 20260502193541 | 16 | 270 | 1.6 | 4.8 | 0.00 | 0.00 | 0.00 | 60 | 1015.4 |
| 20260502192541 | 16 | 270 | 1.6 | 4.8 | 0.00 | 0.00 | 0.00 | 60 | 1015.4 |
| 20260502191606 | 16 | 279 | 1.6 | 6.4 | 0.00 | 0.00 | 0.00 | 59 | 1015.3 |
| 20260502190541 | 16 | 272 | 4.8 | 6.4 | 0.00 | 0.00 | 0.00 | 55 | 1015.3 |
| 20260502185541 | 17 | 273 | 6.4 | 8.0 | 0.00 | 0.00 | 0.00 | 54 | 1015.3 |
| 20260502184541 | 17 | 276 | 3.2 | 6.4 | 0.00 | 0.00 | 0.00 | 52 | 1015.5 |
| 20260502183549 | 17 | 276 | 1.6 | 3.2 | 0.00 | 0.00 | 0.00 | 51 | 1015.6 |
| 20260502182541 | 18 | 276 | 1.6 | 3.2 | 0.00 | 0.00 | 0.00 | 49 | 1015.5 |
| 20260502181601 | 18 | 272 | 1.6 | 6.4 | 0.00 | 0.00 | 0.00 | 48 | 1015.5 |
| 20260502180546 | 18 | 285 | 4.8 | 9.7 | 0.00 | 0.00 | 0.00 | 47 | 1015.4 |
| 20260502163546 | 20 | 306 | 8.0 | 12.9 | 0.00 | 0.00 | 0.00 | 46 | 1016.6 |
| 20260502162541 | 20 | 278 | 8.0 | 16.1 | 0.00 | 0.00 | 0.00 | 45 | 1016.8 |
| 20260502161542 | 21 | 282 | 8.0 | 8.0 | 0.00 | 0.00 | 0.00 | 41 | 1016.9 |
| 20260502160541 | 21 | 274 | 8.0 | 11.3 | 0.00 | 0.00 | 0.00 | 43 | 1016.9 |
| 20260502151541 | 21 | 280 | 4.8 | 11.3 | 0.00 | 0.00 | 0.00 | 47 | 1017.2 |
| 20260502150601 | 21 | 281 | 11.3 | 11.3 | 0.00 | 0.00 | 0.00 | 46 | 1017.3 |
| 20260502130602 | 20 | 276 | 3.2 | 9.7 | 0.00 | 0.00 | 0.00 | 54 | 1018.4 |
| 20260502123441 | 20 | 313 | 8.0 | 16.1 | 0.00 | 0.00 | 0.00 | 63 | 1018.8 |
| 20260502122341 | 20 | 283 | 8.0 | 11.3 | 0.00 | 0.00 | 0.00 | 65 | 1018.8 |
| 20260502121402 | 20 | 291 | 8.0 | 14.5 | 0.00 | 0.00 | 0.00 | 68 | 1018.9 |
| 20260502120407 | 20 | 291 | 9.7 | 12.9 | 0.00 | 0.00 | 0.00 | 70 | 1018.9 |
| 20260502115342 | 20 | 315 | 8.0 | 14.5 | 0.00 | 0.00 | 0.00 | 69 | 1018.9 |
| 20260502114342 | 20 | 306 | 6.4 | 12.9 | 0.00 | 0.00 | 0.00 | 69 | 1018.9 |
| 20260502113343 | 20 | 307 | 11.3 | 19.3 | 0.00 | 0.00 | 0.00 | 69 | 1019.1 |
| 20260502112343 | 20 | 320 | 12.9 | 16.1 | 0.00 | 0.00 | 0.00 | 70 | 1019.2 |
| 20260502111342 | 20 | 313 | 12.9 | 14.5 | 0.00 | 0.00 | 0.00 | 71 | 1019.2 |
| 20260502110342 | 19 | 315 | 9.7 | 17.7 | 0.00 | 0.00 | 0.00 | 73 | 1019.1 |
| 20260502105341 | 19 | 298 | 12.9 | 14.5 | 0.00 | 0.00 | 0.00 | 74 | 1019.1 |
| 20260502104447 | 19 | 299 | 8.0 | 12.9 | 0.00 | 0.00 | 0.00 | 75 | 1019.2 |
| 20260502103347 | 19 | 290 | 8.0 | 17.7 | 0.00 | 0.00 | 0.00 | 74 | 1019.2 |
| 20260502102402 | 19 | 313 | 11.3 | 14.5 | 0.00 | 0.00 | 0.00 | 73 | 1019.3 |
| 20260502101347 | 18 | 303 | 11.3 | 16.1 | 0.00 | 0.00 | 0.00 | 74 | 1019.4 |
| 20260502100402 | 18 | 300 | 16.1 | 24.1 | 0.00 | 0.00 | 0.00 | 73 | 1019.4 |
| 20260502091342 | 18 | 194 | 4.8 | 8.0 | 0.00 | 0.00 | 0.00 | 74 | 1019.4 |
| 20260502090332 | 18 | 306 | 1.6 | 8.0 | 0.00 | 0.00 | 0.00 | 77 | 1019.5 |
| 20260502071342 | 15 | 0.0 | 1.6 | 0.00 | 0.00 | 0.00 | 80 | 1019.5 | |
| 20260502070342 | 15 | 278 | 4.8 | 8.0 | 0.00 | 0.00 | 0.00 | 80 | 1019.4 |
| 20260502065343 | 15 | 311 | 6.4 | 9.7 | 0.00 | 0.00 | 0.00 | 80 | 1019.5 |
| 20260502064347 | 15 | 333 | 6.4 | 11.3 | 0.00 | 0.00 | 0.00 | 78 | 1019.6 |
| 20260502063403 | 15 | 297 | 4.8 | 8.0 | 0.00 | 0.00 | 0.00 | 76 | 1019.5 |
| 20260502062410 | 15 | 309 | 3.2 | 4.8 | 0.00 | 0.00 | 0.00 | 75 | 1019.5 |
| 20260502061344 | 14 | 0.0 | 3.2 | 0.00 | 0.00 | 0.00 | 73 | 1019.4 | |
| 20260502060428 | 13 | 0.0 | 0.0 | 0.00 | 0.00 | 0.00 | 73 | 1019.3 | |
| 20260502055342 | 13 | 291 | 1.6 | 3.2 | 0.00 | 0.00 | 0.00 | 72 | 1019.3 |
| 20260502054342 | 14 | 0.0 | 0.0 | 0.00 | 0.00 | 0.00 | 69 | 1019.4 |